Regional Weather Roundup
Issued by NWS Sioux Falls, SD

Home | Current Version | Previous Version | Graphics & Text | Print | Product List | Glossary On
Versions: 1 2 3 4 5 6 7 8 9 10 11 12 13 14 15 16 17 18 19 20 21 22 23 24 25 26 27 28 29 30 31 32 33 34 35 36 37 38 39 40 41 42 43 44 45 46 47 48 49 50
000
ASUS43 KFSD 010202
RWRFSD

WEATHER ROUNDUP FOR SE SOUTH DAKOTA/SW MINNESOTA/NW IOWA
NATIONAL WEATHER SERVICE SIOUX FALLS SD
900 PM CDT FRI JUL 31 2015

NOTE: "FAIR" INDICATES FEW OR NO CLOUDS BELOW 12,000 FEET WITH NO
SIGNIFICANT WEATHER AND OR OBSTRUCTIONS TO VISIBILITY.


SDZ038>040-050-052>070-010300-
SOUTHEAST SOUTH DAKOTA

CITY           SKY/WX    TMP DP  RH WIND       PRES   REMARKS
BROOKINGS      CLEAR     73  61  64 S7        30.06S
CHAMBERLAIN    NOT AVBL
HURON          CLEAR     78  57  48 S7        30.02S
MADISON        FAIR      75  63  64 SW3       30.07S
MITCHELL       CLEAR     76  62  62 S6        30.05S
SIOUX FALLS    PTCLDY    78  59  51 SW3       30.06R
WINNER         FAIR      79  60  52 E9        30.07R
YANKTON        CLEAR     75  68  78 NE6       30.04R
$$

MNZ071-072-080-081-089-090-097-098-010300-
SOUTHWEST MINNESOTA

CITY           SKY/WX    TMP DP  RH WIND       PRES   REMARKS
FAIRMONT       CLEAR     72  55  56 CALM      30.04S
JACKSON        CLEAR     73  59  60 CALM      30.07R
LUVERNE        CLEAR     72  64  78 CALM      30.06F
MARSHALL       PTCLDY    75  61  60 S6        30.04S
MONTEVIDEO     CLEAR     72  57  60 CALM      30.02F
PIPESTONE      CLEAR     70  64  83 SW3       30.07S
REDWOOD FALLS  CLEAR     74  59  59 S3        30.01F
TRACY          CLEAR     73  63  68 CALM      30.04S
WINDOM         CLEAR     73  61  64 CALM      30.05S
WORTHINGTON    CLEAR     73  57  56 SW6       30.07S
$$

IAZ001>003-012>014-020>022-031-032-NEZ013-014-SDZ071-010300-
NORTHWEST IOWA

CITY           SKY/WX    TMP DP  RH WIND       PRES   REMARKS
DENISON        CLEAR     75  70  83 CALM      30.03R
ESTHERVILLE    CLEAR     69  62  78 S3        30.05S
SIOUX CITY     CLEAR     80  68  66 NE8       30.03S
SPENCER        CLEAR     71  63  75 SW5       30.06S
$$

ABBREVIATIONS USED IN REMARKS
   TC - TEMPERATURE IN CELSIUS
  WCI - WIND CHILL INDEX
   HX - HEAT INDEX
  VSB - VISIBILITY



USA.gov is the U.S. government's official web portal to all federal, state and local government web resources and services.